Weather in Koro

Fiji     17°18′25″S   179°24′33″E
temp.,
°C
wind,
m/s
gust,
m/s
humid.,
%
clouds,
%
prec.,
mm/h
press.,
hPa
HPBL,
m
18 april, sun
sun1800:00+28e44701 0.0 1012876
03:00+28e23690 0.0 1010737
06:00+28ese33680 0.0 1011635
09:00+28ese44690 0.0 1012797
12:00+28e44663 0.0 1011943
15:00+28e44669 0.0 10091048
18:00+28e45726 0.0 1011927
21:00+28ene66735 0.0 1013900
19 april, mon
mon1900:00+28ene677214 0.0 1012878
03:00+28e557218 0.0 1011835
06:00+28e66729 0.1 1012911
09:00+28e677516 0.1 1014903
12:00+28e67772 0.8 1013821
15:00+28e78774 1.3 1012838
18:00+28e897815 2.2 1013888
21:00+28e910798 1.0 1014894
20 april, tue
tue2000:00+28e10107819 2.5 1014965
03:00+28e910764 0.2 1013840
06:00+28ese99731 0.2 1014946
09:00+28e897274 0.0 10151164
12:00+28ese887396 0.1 10131242
15:00+28ese777583 0.1 1012819
18:00+28ese777675 0.4 1013679
21:00+28ese887599 0.3 1015669
21 april, wed
wed2100:00+28ese7772100 0.4 1014740
03:00+28ese66737 0.0 1012941
06:00+27ese667746 0.1 1013817
09:00+28e677415 0.1 1014914
12:00+28e567277 0.1 1012977
15:00+28ese55725 0.0 1011874
18:00+28se567610 0.1 1011718
21:00+28ese66776 0.1 1013813
22 april, thu
thu2200:00+28se667959 0.3 1013753
03:00+27se668096 0.2 1011731
06:00+27ese677989 0.3 1011768
09:00+28ese677811 0.9 1013817
12:00+28e667698 0.9 1011888
15:00+28e55758 0.0 1009827
18:00+28e55790 0.1 1010694
21:00+28e45780 0.1 1012625